Location: Standeford and Andreas Observatories
(44.1397°N, 93.9969°W)
Time: 09:15:13
(UTC-05:00)

Cosmos 1500 Rocket - Visible Passes

Search period start: 31 August 2016 00:00
Search period end: 10 September 2016 00:00
Orbit: 602 x 633 km, 82.5° (Epoch: 31 August)

Date Brightness Start Highest point End Pass type
(mag) Time Alt. Az. Time Alt. Az. Time Alt. Az.
31 Aug 6.4 00:40:04 10° NNW 00:40:53 15° NNW 00:40:53 15° NNW visible
31 Aug 6.2 23:19:54 10° NNE 23:20:32 13° NNE 23:20:32 13° NNE visible
01 Sep 6.6 00:57:18 10° NNW 00:57:40 12° NNW 00:57:40 12° NNW visible
01 Sep 6.1 23:36:21 10° N 23:37:20 16° NNE 23:37:20 16° NNE visible
02 Sep 6.2 23:53:07 10° N 23:54:07 17° N 23:54:07 17° N visible
04 Sep 6.4 00:10:06 10° NNW 00:10:56 15° NNW 00:10:56 15° NNW visible
04 Sep 6.1 22:49:54 10° NNE 22:50:37 13° NNE 22:50:37 13° NNE visible
05 Sep 6.6 00:27:20 10° NNW 00:27:45 12° NNW 00:27:45 12° NNW visible
05 Sep 6.0 23:06:22 10° N 23:07:27 17° NNE 23:07:27 17° NNE visible
06 Sep 6.0 23:23:08 10° N 23:24:17 18° N 23:24:17 18° N visible
07 Sep 6.2 23:40:08 10° NNW 23:41:08 17° NNW 23:41:08 17° NNW visible
08 Sep 5.9 22:19:54 10° NNE 22:20:52 14° NNE 22:20:52 14° NNE visible
08 Sep 6.5 23:57:22 10° NNW 23:57:59 13° NNW 23:57:59 13° NNW visible
09 Sep 5.7 22:36:23 10° N 22:37:44 19° NNE 22:37:44 19° NNE visible
